Location: Terra Rouge Observatory
(46.0000°N, 62.7500°W)
Time: 20:09:01
(UTC-03:00)

Daily predictions for brighter satellites

Satellite Brightness Start Highest point End
(mag) Time Altitude Azimuth Time Altitude Azimuth Time Altitude Azimuth
Cosmos 1892 2.8 21:21:39 10° S 21:25:24 59° E 21:29:13 10° NNE
Cosmos 1733 Rocket 3.3 21:23:27 10° S 21:27:44 52° E 21:32:01 10° NNE
NOSS 2-2 (E) 4.0 21:26:17 10° S 21:30:13 42° ESE 21:34:50 10° NE
USA 186 4.2 21:27:52 10° SSW 21:30:21 23° W 21:32:59 10° NW
Cosmos 909 Rocket 4.4 21:26:11 10° SSW 21:32:34 59° ESE 21:40:16 10° NE
SPOT 1/Viking Rocket 4.4 21:30:21 10° SE 21:35:04 36° ENE 21:39:49 10° N
Cosmos 407 Rocket 3.9 21:31:10 10° NNW 21:36:19 53° ENE 21:41:30 10° SE
CZ-4 SHROUD 3.9 21:35:47 10° SE 21:38:41 39° ENE 21:41:37 10° N
Cosmos 2074 Rocket 4.0 21:32:48 10° S 21:39:06 82° E 21:45:24 10° N
ERBS 2.4 21:36:23 10° NW 21:39:53 72° SW 21:43:09 11° SE
Cosmos 1238 Rocket 3.8 21:37:54 10° NNE 21:40:22 22° ENE 21:42:45 11° SE
COSMOS 2406 3.3 21:36:51 10° NNW 21:42:39 85° WSW 21:48:22 10° SSE
SPOT 5 3.1 21:41:02 10° SSE 21:46:15 76° ENE 21:51:37 10° N
Cosmos 1190 Rocket 4.0 21:41:42 10° NNW 21:46:56 78° ENE 21:52:07 10° SSE
Meteor 1-10 Rocket 4.4 21:41:36 10° NNW 21:47:31 88° W 21:53:17 10° S
ERS-1 Rocket 3.8 21:45:07 10° S 21:50:00 50° W 21:54:55 10° NNW
Nadezhda 3 Rocket 4.2 21:44:20 10° N 21:50:36 58° ENE 21:56:52 10° SSE
H-2A R/B 2.4 21:48:21 10° S 21:52:41 65° WSW 21:56:56 10° NNW
MetOp-B 4.2 21:47:39 10° SSE 21:52:58 72° ENE 21:58:19 10° N
Cosmos 1356 Rocket 3.9 21:50:54 10° SSW 21:55:05 66° WNW 21:59:22 10° N
ATLAS 5 CENTAUR R/B 2.7 21:53:25 10° NW 21:59:20 63° SW 22:05:21 11° SSE
PSLV R/B 3.0 21:57:05 12° SSE 21:59:46 86° ENE 22:02:44 10° NNW
Cosmos 1862 3.8 21:57:42 10° SSE 22:01:34 43° E 22:05:27 10° NNE
ARGOS 3.4 21:57:02 12° SE 22:01:48 54° ENE 22:07:02 10° N
USA 234 3.9 21:56:39 10° ENE 22:02:19 31° SE 22:07:57 10° S
OPS 6432 4.2 21:59:02 10° SSW 22:02:21 58° SE 22:05:26 10° NE
Terra 3.3 21:59:05 12° ESE 22:02:25 24° ENE 22:06:12 10° N
Cosmos 2278 Rocket 3.0 22:02:10 10° SSE 22:07:05 31° ESE 22:12:01 10° NE
Okean 2 Rocket 3.9 22:05:25 15° SE 22:08:24 32° E 22:12:20 10° NNE
Cosmos 2341 Rocket 4.2 22:02:29 10° SSE 22:08:37 55° E 22:14:43 10° NNE
Cosmos 1844 4.0 22:03:48 10° S 22:09:18 48° ESE 22:14:52 10° NE
CZ-4B R/B 3.7 22:05:21 10° NNE 22:10:14 49° E 22:14:57 10° S
Cosmos 1833 Rocket 4.3 22:06:45 10° N 22:11:08 23° NE 22:15:29 10° E
Sich 1 Rocket 3.6 22:07:05 10° S 22:11:40 88° E 22:16:17 10° N
UNK 4.5 22:09:23 10° NNE 22:15:43 73° ESE 22:21:45 10° S
Timation 2 Rocket 4.5 22:10:07 10° NNW 22:15:56 46° NE 22:20:21 17° ESE
Cosmos 676 Rocket 4.0 22:11:24 10° NNW 22:16:38 85° ENE 22:20:43 17° SSE
Meteor 1-27 Rocket 3.8 22:13:27 10° NNW 22:19:05 82° W 22:24:15 12° S
Cosmos 1844 Rocket 2.6 22:15:03 10° SSW 22:20:42 78° ESE 22:26:22 10° NNE
CZ-4C R/B 4.0 22:18:36 20° SE 22:20:46 39° ENE 22:24:32 10° N
Cosmos 2056 Rocket 3.9 22:15:44 10° SSW 22:20:52 67° WNW 22:26:00 10° NNE
Cosmos 1825 2.2 22:19:37 14° S 22:22:44 65° E 22:26:33 10° NNE
Cosmos 2082 Rocket 3.4 22:18:40 10° NNW 22:23:47 32° NE 22:27:47 15° ESE
Cosmos 1954 Rocket 4.0 22:19:11 10° NNW 22:24:24 78° ENE 22:28:06 20° SSE
Cosmos 1174 3.1 22:21:42 10° NW 22:25:07 87° SW 22:26:35 28° SSE
Cosmos 1782 4.3 22:24:49 10° NNW 22:28:29 34° W 22:32:09 10° SSW
Cosmos 1184 Rocket 2.8 22:30:39 24° S 22:32:24 59° E 22:35:43 10° NNE
DNEPR-1 R/B 4.4 22:27:34 10° NNW 22:33:14 55° NE 22:36:19 21° ESE
Cosmos 1782 Rocket 3.5 22:30:15 15° S 22:33:49 71° E 22:38:18 10° NNE
CENTAUR R/B 4.2 22:28:57 10° NW 22:35:58 36° WSW 22:43:19 10° S
Cosmos 962 Rocket 4.4 22:30:37 10° S 22:36:45 87° E 22:43:01 10° N
SL-8 Rocket 4.2 22:32:33 17° SSE 22:37:15 55° E 22:43:20 10° NNE
COSMOS 2487 2.4 22:34:22 10° NNW 22:38:01 82° ENE 22:39:40 30° SSE
CZ-4 R/B 3.7 22:34:06 10° NNE 22:38:48 67° ESE 22:42:22 17° S
SL-27 R/B 4.5 22:36:41 10° NW 22:39:43 25° W 22:42:35 11° SSW
Meteor 2-13 Rocket 4.4 22:35:36 14° S 22:40:58 70° E 22:47:07 10° NNE
Cosmos 2154 Rocket 4.3 22:35:18 10° SSW 22:41:30 70° W 22:47:43 10° N
APEX 4.4 22:42:15 25° ESE 22:42:49 26° ESE 22:46:47 10° NE
USA 229 DEB 4.4 22:36:01 10° NNW 22:42:52 49° NE 22:48:23 16° ESE
YAOGAN 6 4.0 22:40:07 13° SSW 22:42:53 33° W 22:46:07 10° NNW
USA 229 4.4 22:36:07 10° NNW 22:42:58 48° NE 22:48:30 16° ESE
IGS 5A 4.0 22:41:30 27° SE 22:43:22 46° ENE 22:47:23 10° N
Cosmos 1408 2.8 22:40:58 15° SSW 22:43:59 69° W 22:47:39 10° N
SL-8 R/B 3.6 22:40:20 10° WSW 22:45:09 77° SSE 22:49:58 10° ENE
Cosmos 1975 Rocket 3.1 22:43:15 10° NNW 22:47:34 72° W 22:50:14 23° S
SL-08 RB Rocket 3.9 22:46:48 21° S 22:49:50 67° W 22:54:28 10° NNW
Cosmos 1606 4.4 22:47:34 10° NNW 22:51:05 31° W 22:54:20 11° SSW
CARTOSAT-1 3.6 22:50:36 30° SSE 22:52:36 67° ENE 22:56:54 10° N
Okean 3 4.2 22:50:39 10° NNW 22:54:49 50° W 22:57:39 19° SSW
Elektron 3 4.4 22:54:27 10° NW 22:57:17 52° SW 22:58:24 36° S
H-2A R/B 2.1 22:56:03 26° SSE 22:59:14 87° ENE 23:04:37 10° NNW
Cosmos 1536 Rocket 3.9 22:55:54 10° N 23:00:17 51° ENE 23:01:53 34° SE
Cosmos 1242 Rocket 2.8 22:58:14 10° NNW 23:01:50 63° W 23:03:15 33° SSW
Cosmos 1420 Rocket 3.9 23:06:05 20° SSW 23:09:47 78° ESE 23:15:02 10° NNE
Cosmos 864 Rocket 4.5 23:06:29 27° SSE 23:09:56 65° E 23:16:02 10° NNE
Cosmos 2151 Rocket 3.6 23:11:38 37° SSE 23:13:19 69° E 23:17:51 10° NNE
Intercosmos 25 3.8 23:12:07 21° SSW 23:14:21 49° W 23:17:30 10° N
Cosmos 2366 rocket 4.0 23:11:29 25° S 23:15:17 76° E 23:21:38 10° NNE
Meteor 1-25 Rocket 4.5 23:13:48 32° SSE 23:16:21 55° E 23:22:03 10° NNE
Meteor 1-18 Rocket 4.3 23:12:58 10° N 23:18:53 78° ENE 23:21:39 33° SSE
Meteor 1-14 Rocket 4.2 23:17:34 23° SSW 23:21:17 85° W 23:26:56 10° N
SAR-Lupe-2 3.5 23:28:10 60° SSW 23:28:42 74° WSW 23:32:17 10° NNW
ALOS 2 4.3 23:30:07 19° E 23:31:22 21° ENE 23:34:39 10° NNE
ASTEX 1 3.4 23:26:27 10° N 23:31:23 67° E 23:32:54 43° SSE
BREEZE-M TANK 2.9 23:24:43 10° W 23:34:35 81° S 23:35:56 39° ESE
Cosmos 614 Rocket 4.2 23:29:43 10° NNW 23:34:44 59° WSW 23:36:33 37° SSW
Cosmos 2084 3.4 23:32:18 19° SW 23:34:57 67° NW 23:38:48 10° NE
Cosmos 1140 Rocket 4.4 23:30:38 10° NW 23:35:23 38° WSW 23:37:36 26° SSW
Spot 4 4.1 23:34:20 37° S 23:36:09 64° WSW 23:41:00 10° NNW
Cosmos 2218 Rocket 4.3 23:32:39 20° SSW 23:37:13 67° W 23:43:37 10° N
Okean 1-7 Rocket 3.9 23:35:02 10° N 23:39:29 53° ENE 23:40:18 46° ESE
Terra 2.6 23:37:59 29° SSW 23:39:54 44° W 23:44:29 10° NNW
DMSP B5D2-2 4.3 23:34:54 10° N 23:40:05 68° WNW 23:43:08 25° SSW
USA 234 3.2 23:39:13 10° NE 23:45:47 85° NW 23:52:20 10° WSW
Okean 1 Rocket 3.2 23:47:20 53° SE 23:47:52 58° E 23:52:17 10° NNE
Cosmos 2278 Rocket 3.2 23:45:34 10° SW 23:50:59 45° WNW 23:56:27 10° NNE
CZ-4C R/B 4.4 23:50:55 29° ENE 23:51:06 30° ENE 23:54:25 10° N
Meteor 1-11 Rocket 4.3 23:50:37 38° SE 23:52:02 45° E 23:57:32 10° NNE
Cosmos 1727 Rocket 4.3 23:46:28 10° NNW 23:52:31 58° W 23:55:27 30° SSW
Cosmos 1300 Rocket 3.5 23:52:19 62° SSE 23:52:57 76° E 23:57:25 10° NNE
Cosmos 1025 Rocket 3.8 23:50:32 10° N 23:54:39 39° ENE 23:55:10 37° E
Gbstr 26 Del rocket 3.6 23:51:01 10° WNW 23:55:49 54° NNE 23:57:43 29° E
